Kezdőlap
METAR-TAF:

METAR-TAF

Repülőterek :

Schenck Field

Clarinda, Iowa, Amerikai Egyesült Államok

földrajzi szélesség: 40-43N, földrajzi hosszúság: 095-02W, magasság: 303 m

Jelenlegi meteorológiai megfigyelések

A jelentés 17 perccel ezelõtt készült, 11:15 UTC
Dél-délnyugati szél 3 kt
Hőmérséklet 12°C
Páratartalom 100%
Légköri nyomás 1014 hPa
Látótávolság: 16.1 km
Derült ég

METAR: KICL 171115Z AUTO 20003KT 10SM CLR 12/12 A2995 RMK AO2

Idő: 06:32 (11:32 UTC)


TAF: hiányzik

Meteorológiai megfigyelések és előrejelzések több, mint 4000 repülőtéren (METAR és TAF jelentéseket).

A térképen piros és sárga pontok jelzik az elérhető meteorológiai állomásokat.

Mozgassa az egeret a pont fölött, hogy megjelenjen az állomás neve.

Azután kattintson az időjárási megfigyelések és előrejelzések megtekintéséhez.

A térkép megváltoztatása: kattintson a fekete keresztel jelölt zöld gombra ráközelítéshez, a vonallal jelölt zöld gombra távolításhoz, vagy a zöld nyilakra a szomszédos térképek eléréséhez.


METAR-TAF: